Weather History for Cozumel, Mexico

Change the Weather History Date:

Wednesday, November 16, 2011

  Actual Average Record
Temperature  
Mean Temperature 76 °F -  
Max Temperature 82 °F 83 °F 87 °F (1997)
Min Temperature 69 °F 73 °F 60 °F (2010)
Cooling Degree Days 10    
Growing Degree Days 26 (Base 50)    
Moisture  
Dew Point 73 °F    
Average Humidity 90    
Maximum Humidity 100    
Minimum Humidity 74    
Precipitation  
Precipitation 0.00 in - - ()
Sea Level Pressure  
Sea Level Pressure 29.93 in    
Wind  
Wind Speed 3 mph ()    
Max Wind Speed 14 mph    
Max Gust Speed 21 mph    
Visibility 7.4 miles    
Events      
Averages and records for this station are not official NWS values.
T = Trace of Precipitation, MM = Missing Value Source: Averaged Metar Reports

Daily Weather History Graph

Daily Weather History Graph

Search for Another Location

Airport:

Trip Planner

Search our weather history database for the weather conditions in past years. The results will help you decide how hot, cold, wet, or windy it might be!

Date:

Astronomy

Nov. 16, 2011 Rise Set
Actual Time 5:57 AM CST 5:06 PM CST
Civil Twilight 5:34 AM CST 5:30 PM CST
Nautical Twilight 5:07 AM CST 5:57 PM CST
Astronomical Twilight 4:41 AM CST 6:23 PM CST
Moon 10:13 PM CST (11/16) 10:36 AM CST (11/16)
Length of Visible Light 11h 55m
Length of Day
11h 09m
Waning Gibbous, 70% of the Moon is Illuminated
Nov 16
Waning Gibbous
Nov 18
Last Quarter
Nov 25
New
Dec 2
First Quarter
Dec 10
Full

Hourly Weather History & Observations

Time (CST) Temp. Heat Index Dew Point Humidity Pressure Visibility Wind Dir Wind Speed Gust Speed Precip Events Conditions
12:45 AM 71.6 °F - 71.6 °F 100% 29.92 in 7.0 mi Calm Calm - N/A   Partly Cloudy
1:41 AM 73.4 °F - 73.4 °F 100% 29.91 in 7.0 mi Calm Calm - N/A   Partly Cloudy
3:09 AM 73.4 °F - 73.4 °F 100% 29.94 in 7.0 mi East 4.6 mph - N/A   Partly Cloudy
3:41 AM 71.6 °F - 71.6 °F 100% 29.92 in 7.0 mi Calm Calm - N/A   Scattered Clouds
4:43 AM 71.6 °F - 71.6 °F 100% 29.92 in 7.0 mi Calm Calm - N/A   Scattered Clouds
6:13 AM 69.8 °F - 69.8 °F 100% 29.89 in 7.0 mi Calm Calm - N/A   Partly Cloudy
6:44 AM 71.6 °F - 71.6 °F 100% 29.95 in 7.0 mi ESE 5.8 mph - N/A   Partly Cloudy
7:46 AM 77.0 °F - 75.2 °F 94% 29.94 in 8.0 mi SE 6.9 mph - N/A   Clear
8:47 AM 78.8 °F - 75.2 °F 89% 29.97 in 8.0 mi SE 13.8 mph - N/A   Clear
9:44 AM 80.6 °F 86.2 °F 75.2 °F 84% 29.95 in 8.0 mi SE 9.2 mph 20.7 mph N/A   Scattered Clouds
10:41 AM 82.4 °F 89.5 °F 75.2 °F 79% 29.95 in 8.0 mi SE 9.2 mph - N/A   Scattered Clouds
11:45 AM 82.4 °F 88.2 °F 73.4 °F 74% 29.92 in 8.0 mi SE 6.9 mph - N/A   Scattered Clouds
12:41 PM 82.4 °F 88.2 °F 73.4 °F 74% 29.92 in 8.0 mi ESE 9.2 mph - N/A   Mostly Cloudy
1:42 PM 82.4 °F 88.2 °F 73.4 °F 74% 29.90 in 8.0 mi SE 6.9 mph - N/A   Mostly Cloudy
2:40 PM 80.6 °F 86.2 °F 75.2 °F 84% 29.92 in 8.0 mi ESE 9.2 mph - N/A   Mostly Cloudy
3:40 PM 80.6 °F 85.4 °F 73.4 °F 79% 29.88 in 8.0 mi ESE 6.9 mph - N/A   Mostly Cloudy
4:43 PM 77.0 °F - 73.4 °F 89% 29.89 in 8.0 mi ESE 5.8 mph - N/A   Scattered Clouds
5:46 PM 80.6 °F 85.4 °F 73.4 °F 79% 29.88 in 7.0 mi ESE 6.9 mph - N/A   Partly Cloudy
6:42 PM 73.4 °F - 71.6 °F 94% 29.93 in 7.0 mi Calm Calm - N/A   Partly Cloudy
7:47 PM 71.6 °F - 69.8 °F 94% 29.95 in 7.0 mi Calm Calm - N/A   Partly Cloudy
8:48 PM 71.6 °F - 69.8 °F 94% 29.99 in 7.0 mi ESE 3.5 mph - N/A   Partly Cloudy
9:41 PM 73.4 °F - 71.6 °F 94% 29.97 in 7.0 mi Calm Calm - N/A   Scattered Clouds
10:41 PM 73.4 °F - 71.6 °F 94% 29.97 in 7.0 mi Calm Calm - N/A   Scattered Clouds
11:47 PM 73.4 °F - 71.6 °F 94% 29.94 in 7.0 mi Calm Calm - N/A   Mostly Cloudy